INV160 EGGD-EGPH

Flight info

Callsign INV160
Flight time 0h 56m
Altitude 26000
Route DCT BCN P69 DIZIM DCT KISWO/N0426F270 DCT AVTIC DCT ANJAK/N0433F280 N38 NOKIN UP16 RIBEL DCT INPIP DCT
Aircraft A320/M-SDE3FGHIRWY/LB1

Departure

Time 2026-05-04 06:16
Airport Bristol Airport (EGGD)

Arrival

Time 2026-05-04 07:12
Airport Edinburgh Airport (EGPH)
Time Latitude Longitude Altitude Speed Heading
2026-05-04 05:54 51.38521 -2.71141 619 ft 0 kts 357°
2026-05-04 06:08 51.38520 -2.71141 611 ft 2 kts 357°
2026-05-04 06:08 51.38495 -2.71139 627 ft 4 kts 356°
2026-05-04 06:08 51.38482 -2.71138 612 ft 4 kts 352°
2026-05-04 06:09 51.38460 -2.71111 615 ft 4 kts 273°
2026-05-04 06:09 51.38460 -2.71087 619 ft 0 kts 266°
2026-05-04 06:14 51.38426 -2.72306 609 ft 32 kts 266°
2026-05-04 06:14 51.38414 -2.72654 609 ft 32 kts 267°
2026-05-04 06:15 51.38400 -2.73029 604 ft 34 kts 266°
2026-05-04 06:15 51.38377 -2.73280 620 ft 18 kts 225°
2026-05-04 06:15 51.38274 -2.73341 619 ft 13 kts 182°
2026-05-04 06:15 51.38220 -2.73286 623 ft 6 kts 115°
2026-05-04 06:16 51.38219 -2.73172 628 ft 27 kts 88°
2026-05-04 06:16 51.38247 -2.72415 628 ft 106 kts 86°
2026-05-04 06:16 51.38313 -2.70897 725 ft 151 kts 85°
2026-05-04 06:16 51.38388 -2.69217 1359 ft 154 kts 85°
2026-05-04 06:17 51.38443 -2.67476 1998 ft 158 kts 86°
2026-05-04 06:17 51.38490 -2.65697 2540 ft 165 kts 86°
2026-05-04 06:17 51.38548 -2.63706 2731 ft 191 kts 86°
2026-05-04 06:17 51.38615 -2.61452 2975 ft 215 kts 85°
2026-05-04 06:18 51.38692 -2.58919 3341 ft 239 kts 86°
2026-05-04 06:18 51.39013 -2.56213 3814 ft 256 kts 61°
2026-05-04 06:18 51.40259 -2.54206 4557 ft 261 kts 25°
2026-05-04 06:20 51.48786 -2.67700 6032 ft 273 kts 301°
2026-05-04 06:20 51.49778 -2.70300 6066 ft 275 kts 302°
2026-05-04 06:21 51.54026 -2.80775 9331 ft 286 kts 303°
2026-05-04 06:21 51.55133 -2.83464 10101 ft 290 kts 303°
2026-05-04 06:22 51.56279 -2.86257 10451 ft 311 kts 302°
2026-05-04 06:22 51.57510 -2.89270 10656 ft 334 kts 302°
2026-05-04 06:25 51.79306 -3.24645 18550 ft 394 kts
2026-05-04 06:25 51.82027 -3.23979 19487 ft 396 kts
2026-05-04 06:26 51.84770 -3.23301 19970 ft 400 kts
2026-05-04 06:26 51.87537 -3.22618 20482 ft 404 kts
2026-05-04 06:26 51.90327 -3.21930 21006 ft 407 kts
2026-05-04 06:26 51.93140 -3.21236 21522 ft 410 kts
2026-05-04 06:27 52.04606 -3.18490 23493 ft 421 kts
2026-05-04 06:28 52.07543 -3.18254 23911 ft 423 kts
2026-05-04 06:28 52.10487 -3.18032 24316 ft 425 kts
2026-05-04 06:28 52.13454 -3.17810 24717 ft 427 kts
2026-05-04 06:28 52.16426 -3.17589 25117 ft 428 kts
2026-05-04 06:29 52.19411 -3.17366 25493 ft 430 kts
2026-05-04 06:29 52.22405 -3.17137 25860 ft 432 kts
2026-05-04 06:29 52.25406 -3.16903 25979 ft 429 kts
2026-05-04 06:29 52.28351 -3.16670 26003 ft 420 kts
2026-05-04 06:30 52.31221 -3.16446 26005 ft 416 kts
2026-05-04 06:30 52.34111 -3.16222 26010 ft 415 kts
2026-05-04 06:30 52.37031 -3.15996 26010 ft 415 kts
2026-05-04 06:30 52.39915 -3.15771 26010 ft 415 kts
2026-05-04 06:31 52.42763 -3.15548 26013 ft 415 kts
2026-05-04 06:31 52.45652 -3.15325 26009 ft 415 kts
2026-05-04 06:31 52.48533 -3.15101 26001 ft 414 kts
2026-05-04 06:31 52.51394 -3.14877 26012 ft 412 kts
2026-05-04 06:32 52.54258 -3.14656 26018 ft 410 kts
2026-05-04 06:33 52.73981 -3.11526 26010 ft 404 kts 24°
2026-05-04 06:34 52.76529 -3.09585 26025 ft 403 kts 27°
2026-05-04 06:34 52.79058 -3.07608 26028 ft 402 kts 26°
2026-05-04 06:34 52.81587 -3.05634 26031 ft 401 kts 26°
2026-05-04 06:34 52.84108 -3.03665 26032 ft 401 kts 26°
2026-05-04 06:35 52.86632 -3.01692 26026 ft 401 kts 26°
2026-05-04 06:36 53.04901 -2.89990 26031 ft 402 kts 21°
2026-05-04 06:37 53.07557 -2.88358 26031 ft 401 kts 21°
2026-05-04 06:37 53.10140 -2.86770 26033 ft 401 kts 21°
2026-05-04 06:37 53.12747 -2.85164 26033 ft 400 kts 21°
2026-05-04 06:37 53.15361 -2.83548 26034 ft 400 kts 21°
2026-05-04 06:38 53.17972 -2.81930 26032 ft 400 kts 22°
2026-05-04 06:38 53.20579 -2.80309 26029 ft 400 kts 22°
2026-05-04 06:40 53.38768 -2.68966 26022 ft 398 kts 21°
2026-05-04 06:40 53.41361 -2.67333 26022 ft 398 kts 22°
2026-05-04 06:40 53.43952 -2.65700 26020 ft 398 kts 22°
2026-05-04 06:40 53.46541 -2.64066 26021 ft 398 kts 22°
2026-05-04 06:41 53.49132 -2.62431 26021 ft 398 kts 21°
2026-05-04 06:41 53.51723 -2.60800 26021 ft 398 kts 21°
2026-05-04 06:41 53.53438 -2.59723 26021 ft 398 kts 21°
2026-05-04 06:41 53.56912 -2.57539 26021 ft 399 kts 21°
2026-05-04 06:42 53.59509 -2.55901 26019 ft 399 kts 21°
2026-05-04 06:42 53.62112 -2.54256 26014 ft 399 kts 21°
2026-05-04 06:42 53.64711 -2.52609 26012 ft 400 kts 21°
2026-05-04 06:44 53.82931 -2.41004 26026 ft 400 kts 21°
2026-05-04 06:44 53.85530 -2.39330 26029 ft 399 kts 21°
2026-05-04 06:44 53.88128 -2.37655 26027 ft 399 kts 21°
2026-05-04 06:45 53.90727 -2.35983 26029 ft 400 kts 21°
2026-05-04 06:45 53.93330 -2.34310 26029 ft 400 kts 21°
2026-05-04 06:45 53.95934 -2.32641 26029 ft 400 kts 21°
2026-05-04 06:45 53.98594 -2.31306 26027 ft 400 kts 11°
2026-05-04 06:46 54.01363 -2.30826 26032 ft 401 kts
2026-05-04 06:46 54.04146 -2.31232 26037 ft 403 kts 351°
2026-05-04 06:46 54.06849 -2.32547 26033 ft 405 kts 340°
2026-05-04 06:46 54.09460 -2.34357 26034 ft 405 kts 340°
2026-05-04 06:48 54.27671 -2.47042 26039 ft 404 kts 340°
2026-05-04 06:48 54.30280 -2.48862 26039 ft 404 kts 340°
2026-05-04 06:49 54.32881 -2.50675 26040 ft 403 kts 340°
2026-05-04 06:50 54.51040 -2.63454 26046 ft 402 kts 339°
2026-05-04 06:51 54.53626 -2.65282 26050 ft 401 kts 339°
2026-05-04 06:51 54.56206 -2.67108 26051 ft 401 kts 339°
2026-05-04 06:51 54.57921 -2.68321 26050 ft 401 kts 339°
2026-05-04 06:51 54.61369 -2.70766 26057 ft 401 kts 339°
2026-05-04 06:52 54.63946 -2.72601 26059 ft 400 kts 339°
2026-05-04 06:52 54.66521 -2.74440 26048 ft 400 kts 339°
2026-05-04 06:52 54.69089 -2.76275 26049 ft 400 kts 339°
2026-05-04 06:52 54.71661 -2.78114 26046 ft 399 kts 339°
2026-05-04 06:53 54.74227 -2.79953 26038 ft 399 kts 339°
2026-05-04 06:53 54.76758 -2.81767 26039 ft 399 kts 339°
2026-05-04 06:53 54.78490 -2.83008 26040 ft 399 kts 339°
2026-05-04 06:53 54.81880 -2.85436 26042 ft 397 kts 339°
2026-05-04 06:54 54.84451 -2.87283 26040 ft 394 kts 339°
2026-05-04 06:54 54.86983 -2.89107 26047 ft 393 kts 339°
2026-05-04 06:54 54.89480 -2.90903 25771 ft 395 kts 339°
2026-05-04 06:54 54.92035 -2.92747 25069 ft 396 kts 339°
2026-05-04 06:55 54.94569 -2.94580 24527 ft 393 kts 338°
2026-05-04 06:55 54.97083 -2.96406 23980 ft 391 kts 338°
2026-05-04 06:55 54.98745 -2.97617 23630 ft 390 kts 338°
2026-05-04 06:55 55.02076 -3.00046 22832 ft 386 kts 338°
2026-05-04 06:56 55.04545 -3.01846 22296 ft 383 kts 338°
2026-05-04 06:57 55.20753 -3.13692 18358 ft 382 kts 336°
2026-05-04 06:58 55.23187 -3.15479 17951 ft 376 kts 336°
2026-05-04 06:58 55.25555 -3.17220 17819 ft 362 kts 336°
2026-05-04 06:58 55.27837 -3.18896 17684 ft 350 kts 337°
2026-05-04 06:58 55.30145 -3.20004 17545 ft 340 kts 351°
2026-05-04 06:59 55.32470 -3.20021 17413 ft 331 kts
2026-05-04 06:59 55.34734 -3.19655 17173 ft 324 kts
2026-05-04 06:59 55.36968 -3.19300 16811 ft 321 kts
2026-05-04 06:59 55.39183 -3.18954 16434 ft 319 kts
2026-05-04 07:01 55.54348 -3.16564 14025 ft 308 kts
2026-05-04 07:01 55.56438 -3.15868 13791 ft 304 kts
2026-05-04 07:02 55.58498 -3.15097 13422 ft 302 kts
2026-05-04 07:02 55.60549 -3.14297 13020 ft 301 kts 10°
2026-05-04 07:02 55.62594 -3.13491 12624 ft 301 kts 10°
2026-05-04 07:02 55.64639 -3.12688 12212 ft 301 kts
2026-05-04 07:03 55.66669 -3.11898 11869 ft 298 kts 10°
2026-05-04 07:03 55.68699 -3.11111 11497 ft 296 kts 10°
2026-05-04 07:03 55.70719 -3.10328 11064 ft 297 kts 10°
2026-05-04 07:03 55.72714 -3.09553 10782 ft 290 kts 10°
2026-05-04 07:04 55.74677 -3.08795 10171 ft 287 kts
2026-05-04 07:04 55.76596 -3.08056 9724 ft 278 kts 10°
2026-05-04 07:04 55.78450 -3.07342 9312 ft 267 kts
2026-05-04 07:04 55.80227 -3.06654 8929 ft 256 kts
2026-05-04 07:05 55.81976 -3.05979 8558 ft 257 kts
2026-05-04 07:05 55.83719 -3.05309 8168 ft 256 kts
2026-05-04 07:05 55.85463 -3.04642 7791 ft 257 kts
2026-05-04 07:05 55.87218 -3.04044 7390 ft 257 kts
2026-05-04 07:06 55.90726 -3.02942 6590 ft 257 kts
2026-05-04 07:06 55.92492 -3.02389 6144 ft 259 kts
2026-05-04 07:06 55.94273 -3.01906 5706 ft 258 kts
2026-05-04 07:07 55.96049 -3.02051 5290 ft 254 kts 349°
2026-05-04 07:08 56.03063 -3.12877 4147 ft 190 kts 252°
2026-05-04 07:09 56.02497 -3.14990 3920 ft 187 kts 239°
2026-05-04 07:09 56.01850 -3.16912 3823 ft 174 kts 240°
2026-05-04 07:09 56.01257 -3.18682 3678 ft 157 kts 240°
2026-05-04 07:09 56.00717 -3.20289 3430 ft 148 kts 240°
2026-05-04 07:10 56.00189 -3.21862 3022 ft 147 kts 240°
2026-05-04 07:10 55.99675 -3.23391 2978 ft 141 kts 240°
2026-05-04 07:12 55.96058 -3.34131 486 ft 153 kts 238°
2026-05-04 07:12 55.95517 -3.35742 170 ft 149 kts 238°
2026-05-04 07:12 55.95039 -3.37151 112 ft 100 kts 238°
2026-05-04 07:12 55.94828 -3.37763 114 ft 26 kts 238°
2026-05-04 07:13 55.94741 -3.38010 114 ft 22 kts 237°
2026-05-04 07:13 55.94652 -3.38274 114 ft 27 kts 239°
2026-05-04 07:13 55.94547 -3.38590 111 ft 31 kts 239°
2026-05-04 07:14 55.94373 -3.38529 114 ft 29 kts 60°
2026-05-04 07:14 55.94441 -3.38320 113 ft 16 kts 59°
2026-05-04 07:15 55.94497 -3.38155 115 ft 15 kts 58°
2026-05-04 07:15 55.94548 -3.38007 112 ft 13 kts 58°
2026-05-04 07:15 55.94595 -3.37875 114 ft 12 kts 57°
2026-05-04 07:15 55.94637 -3.37757 114 ft 11 kts 59°
2026-05-04 07:16 55.94673 -3.37649 116 ft 10 kts 59°
2026-05-04 07:16 55.94716 -3.37524 115 ft 14 kts 58°
2026-05-04 07:16 55.94773 -3.37357 115 ft 18 kts 59°
2026-05-04 07:16 55.94843 -3.37144 113 ft 22 kts 59°
2026-05-04 07:17 55.94918 -3.36918 113 ft 16 kts 62°
2026-05-04 07:17 55.94873 -3.36785 116 ft 13 kts 164°
2026-05-04 07:17 55.94784 -3.36772 116 ft 13 kts 164°
2026-05-04 07:17 55.94709 -3.36727 116 ft 8 kts 129°
2026-05-04 07:18 55.94700 -3.36661 116 ft 3 kts 86°
2026-05-04 07:18 55.94702 -3.36600 116 ft 0 kts 88°